Terug naar catalogus

STARLINK-30602

ActiefCommunicatieVLEO
NORAD 58081·PAYLOAD·🇺🇸 United States

Gelanceerd Oct 18, 2023 vanaf Cape Canaveral Space Force Station

Loading…

Volgende Passages (komende 24 uur)

TLE

VersSource: CelesTrak SupGP

Epoch: Sep 14, 2026, 22:23 UTC

1 58081C 23160G   26257.93312500  .00047157  00000+0  17075-2 0  2571
2 58081  42.9996  92.5950 0001308 271.9896 230.6017 15.27565001    19

Volg STARLINK-30602 in realtime met AllMySat

Download on the App Store